Regional Weather Roundup
Issued by NWS

Home | Current Version | Previous Version | Graphics & Text | Print | Product List | Glossary On
Versions: 1 2 3 4 5 6 7 8 9 10 11 12 13 14 15 16 17 18 19 20 21 22 23 24 25 26 27 28 29 30 31 32 33 34 35 36 37 38 39 40 41 42 43 44 45 46 47 48 49 50
000
ASUS45 KBOU 240510
RWRCO

WEATHER ROUNDUP FOR COLORADO
NATIONAL WEATHER SERVICE DENVER/BOULDER CO
1100 PM MDT FRI SEP 23 2016

NOTE: "FAIR" INDICATES FEW OR NO CLOUDS BELOW 12000 FEET WITH NO
SIGNIFICANT WEATHER AND/OR OBSTRUCTIONS TO VISIBILITY.

COZ001>005-013-030-031-240600-
...NORTHWEST COLORADO...

CITY           SKY/WX    TMP DP  RH WIND       PRES   REMARKS
CRAIG          CLOUDY    40  34  79 SW5       30.04F
HAYDEN         FAIR      39  30  70 SW6       30.05F
MEEKER         CLOUDY    43  36  76 CALM      30.07F
MOUNT WERNER   NOT AVBL
STEAMBOAT SPGS FAIR      39  35  88 CALM      30.06S
WALDEN           N/A     34  28  80 SE7       30.07F WCI  28
$$

COZ006>008-011-240600-
...WEST CENTRAL VALLEYS...

CITY           SKY/WX    TMP DP  RH WIND       PRES   REMARKS
GRAND JUNCTION CLOUDY    48  38  68 SE10      30.05F
MONTROSE       FAIR      43  39  86 SE6       30.12S
EAGLE          CLOUDY    41  37  87 NE5       30.11F
RIFLE          MOCLDY    44  39  82 SE7       30.08F
DELTA          FAIR      47  41  81 NE3       30.10F
NUCLA          FAIR      41  34  75 E7        30.14S
$$

COZ017>023-064>068-240600-
...SOUTHWEST COLORADO...

CITY           SKY/WX    TMP DP  RH WIND       PRES   REMARKS
DURANGO        FAIR      36  33  89 CALM      30.16R
CORTEZ         FAIR      36  34  92 CALM      30.13R
PAGOSA SPRINGS FAIR      34  34 100 CALM      30.19R
TELLURIDE      FAIR      33  30  90 SE5       30.22R WCI  28
WOLF CREEK PAS FAIR      21  19  93 MISG      30.26S
$$

COZ009-010-012-014-032>034-037-058>063-240600-
...CENTRAL COLORADO...

CITY           SKY/WX    TMP DP  RH WIND       PRES   REMARKS
ASPEN          FAIR      35  33  92 NW5       30.11S WCI  31
BUENA VISTA    FAIR      35  32  87 CALM      30.10S
COPPER MTN     FAIR      28  16  59 MISG      30.17S
BERTHOUD PASS  CLOUDY    21   7  53 NW26G35   30.11F WCI   4
COTTONWOOD PAS FAIR      36  21  55 W6        30.13S
GUNNISON       FAIR      34  32  92 N5        30.16F WCI  30
KREMMLING      CLOUDY    37  32  81 CALM      30.09R
LEADVILLE      FAIR      25  22  88 CALM      30.12F
MONARCH PASS   FOG       23  21  93 W21       30.28F VSB 1/4 WCI   8
SALIDA         FAIR      42  28  56 W7        30.15F
SUNLIGHT       FAIR      30  28  93 MISG      30.18F
WILKERSON PASS FOG       27  25  93 SW15G25   30.12R VSB 1   WCI  15
$$

COZ069>075-240600-
...SAN LUIS VALLEY/SANGRE DE CRISTO MOUNTAINS...

CITY           SKY/WX    TMP DP  RH WIND       PRES   REMARKS
ALAMOSA        FAIR      34  33  96 SW7       30.16R WCI  28
LA VETA PASS   FAIR      32  23  69 MISG      30.14R
SAGUACHE       NOT AVBL
$$

COZ035-036-038>040-240600-
...NORTHERN COLORADO FRONT RANGE...

CITY           SKY/WX    TMP DP  RH WIND       PRES   REMARKS
DENVER INTL AP MOCLDY    59  30  33 E15       29.85S
DMNS CITY PARK   N/A     57  28  32 SE13G20   29.85R
AURORA         MOCLDY    56  27  33 S10       29.87F
FRONT RANGE AP NOT AVBL
ERIE MUNI ARPT CLOUDY    62  26  25 NW6       29.84R
BOULDER MUN AP CLOUDY    59  30  33 NW10      29.84R
CENTENNIAL     FAIR      54  26  34 SW20G32   29.89S
BROOMFIELD     NOT AVBL
FORT COLLINS   FAIR      54  43  66 N8        29.87R
LONGMONT       LGT RAIN  59  33  37 NW12G25   29.87R
$$

COZ041-046-047-076>085-087-088-240600-
...PIKES PEAK/PALMER DIVIDE AND SOUTHERN FOOTHILLS...

CITY           SKY/WX    TMP DP  RH WIND       PRES   REMARKS
COLO. SPRINGS  FAIR      55  17  22 VRB6G23   29.92R
A. F. ACADEMY  FAIR      51  19  28 W23G54    29.93R
SCHRIEVER AFB  NOT AVBL
ELLICOTT       FAIR       1  32 100 SW29G36   29.93R WCI -24
FALCON         FAIR      50  18  29 NW21G35   29.96R
FORT CARSON    FAIR      55  18  23 W15G28    29.93R
LIMON          FAIR      56  28  34 SW6       29.92R
MONUMENT HILL  FAIR      45  25  45 W16G24    29.98R
TRINIDAD       FAIR      56  22  26 S3        30.00R
$$

COZ042>045-048>051-090-091-240600-
...NORTHEAST COLORADO...

CITY           SKY/WX    TMP DP  RH WIND       PRES   REMARKS
GREELEY ARPT   CLOUDY    54  41  62 NW12G21   29.88R
AKRON          FAIR      52  47  83 N21G28    29.83R
BURLINGTON     LGT RAIN  58  49  72 SW21      29.90S
WRAY           NOT AVBL
STERLING       DRIZZLE   52  46  82 N23G32    29.86R
HOLYOKE        FAIR      75  55  50 S17G23    29.81R
FORT MORGAN    FAIR      57  35  43 N22G38    29.87S
$$

COZ086-089-092>099-240600-
...SOUTHEAST COLORADO...

CITY           SKY/WX    TMP DP  RH WIND       PRES   REMARKS
PUEBLO         FAIR      60  24  25 W17       29.93R
LA JUNTA       FAIR      65  24  21 W22G30    29.92R
LAMAR          FAIR      60  44  55 SW6       29.91R
SPRINGFIELD    NOT AVBL
$$



USA.gov is the U.S. government's official web portal to all federal, state and local government web resources and services.